Location: Abundant Grace Fellowship
(35.0349°N, 90.0924°W)
Time: 21:36:05
(UTC+00:00)

Cosmos 1992 Rocket - Pass Details

Date: 18 January 2026
Orbit: 754 x 761 km, 74.0° (Epoch: 10 February)

Event Time Altitude Azimuth Distance (km) Brightness Sun altitude
Rises 00:27:25 0° 196° (SSW) 3,190 7.6 -14.9°
Reaches altitude 10° 00:29:46 10° 196° (SSW) 2,269 6.8 -15.4°
Maximum altitude 00:34:55 90° 245° (WSW) 758 3.9 -16.4°
Drops below altitude 10° 00:40:07 10° 17° (NNE) 2,284 6.2 -17.5°
Enters shadow 00:40:28 - 17° (NNE) 2,419 6.3 -17.5°
